User: anonymous   Login
Location: Unspecified
(0.0000°N, 0.0000°E)
Time: 01:31:36
(UTC+00:00)
Language:

COSMOS 2508 - Orbit

View from above orbital plane
View from above orbital plane
View from above satellite
View from above satellite

Ground track
Ground track

The orbit data is extracted from the following two-line orbital elements,

1 40921U 15050B   20294.47361256 +.00000033 +00000-0 +16638-3 0  9991
2 40921 082.4837 284.9413 0012824 203.5013 156.5482 12.42875497230254
Epoch (UTC): 20 October 2020 11:22:00
Eccentricity: 0.0012824
inclination: 82.4837°
perigee height: 1484 km
apogee height: 1504 km
right ascension of ascending node: 284.9413°
argument of perigee: 203.5013°
revolutions per day: 12.42875497
mean anomaly at epoch: 156.5482°
orbit number at epoch: 23025

The dashed part of the orbit path shows where the satellite is in the earth's shadow,  

DLR